Location: Stara Lesna
(49.1528°N, 20.2911°E)
Time: 19:15:25
(UTC+02:00)

Cosmos 1470 Rocket - Pass Details

Date: 13 July 2020
Orbit: 603 x 634 km, 82.5° (Epoch: 10 August)

Event Time Altitude Azimuth Distance (km) Brightness Sun altitude
Exits shadow 01:22:31 35° 158° (SSE) 1,022 4.2 -18.6°
Maximum altitude 01:24:10 59° 95° (E) 740 3.9 -18.5°
Drops below altitude 10° 01:28:36 10° 17° (NNE) 2,031 7.5 -18.4°
Sets 01:30:52 0° 13° (NNE) 2,943 8.8 -18.3°
